FW2736 Weather Reports


Display with metric or nautical units.
time (UTC)temp
F
wind
direction
speed
MPH
gust
MPH
rain 1hr
in
rain 24hr
in
rain mn
in
humidity
%
barometer
mb
20260831105306 65 315 2.0 0.0 0.00 0.00 0.00 75 961.1
20260831104439 65 230 1.0 0.0 0.00 0.00 0.00 75 961.1
20260831104005 66 229 1.0 0.0 0.00 0.00 0.00 74 961.1
20260831103439 66 302 2.0 0.0 0.00 0.00 0.00 73 961.1
20260831102940 67 207 2.0 0.0 0.00 0.00 0.00 73 961.1
20260831102442 67 162 2.0 0.0 0.00 0.00 0.00 73 961.1
20260831101959 67 297 2.0 0.0 0.00 0.00 0.00 74 961.1
20260831101501 67 297 0.0 0.0 0.00 0.00 0.00 72 961.1
20260831101000 67 297 0.0 0.0 0.00 0.00 0.00 74 961.1
20260831100459 67 297 0.0 0.0 0.00 0.00 0.00 72 960.7
20260831095959 67 296 1.0 0.0 0.00 0.00 0.00 72 961.1
20260831095458 67 296 0.0 0.0 0.00 0.00 0.00 72 961.1
20260831094856 67 297 2.0 0.0 0.00 0.00 0.00 72 961.1
20260831094758 67 296 2.0 0.0 0.00 0.00 0.00 72 961.1
20260831093955 67 312 0.0 0.0 0.00 0.00 0.00 72 961.1
20260831093355 67 312 0.0 0.0 0.00 0.00 0.00 70 961.1
20260831093255 68 312 0.0 0.0 0.00 0.00 0.00 69 961.1
20260831092455 68 313 2.0 0.0 0.00 0.00 0.00 68 961.1
20260831091957 68 312 2.0 0.0 0.00 0.00 0.00 67 960.7
20260831091454 69 289 2.0 0.0 0.00 0.00 0.00 68 960.7
20260831091057 68 215 3.0 0.0 0.00 0.00 0.00 72 960.7
20260831090656 68 299 0.0 0.0 0.00 0.00 0.00 68 960.7
20260831084953 68 300 1.0 0.0 0.00 0.00 0.00 68 961.1
20260831084455 68 299 0.0 0.0 0.00 0.00 0.00 66 961.1
20260831083952 68 299 1.0 0.0 0.00 0.00 0.00 66 961.1
20260831083352 68 267 1.0 0.0 0.00 0.00 0.00 66 961.1
20260831070447 72 0 3.0 0.0 0.00 0.00 0.00 62 961.1
20260831065947 72 314 3.0 0.0 0.00 0.00 0.00 62 961.1
20260831065447 72 335 3.0 0.0 0.00 0.00 0.00 62 961.1
20260831064945 72 324 4.0 0.0 0.00 0.00 0.00 61 961.1
20260831064444 72 335 4.0 0.0 0.00 0.00 0.00 62 961.1
20260831063945 72 307 8.0 0.0 0.00 0.00 0.00 62 961.1
20260831063445 72 348 3.0 0.0 0.00 0.00 0.00 62 961.1
20260831062945 73 1 8.0 0.0 0.00 0.00 0.00 62 961.1
20260831062444 73 207 8.0 0.0 0.00 0.00 0.00 61 960.7
20260831061944 73 74 3.0 0.0 0.00 0.00 0.00 61 960.7
20260831061448 73 39 4.0 0.0 0.00 0.00 0.00 61 960.7
20260831060943 73 345 5.0 0.0 0.00 0.00 0.00 61 960.7
20260831060443 73 195 5.0 0.0 0.00 0.00 0.00 61 960.7
20260831055945 74 19 5.0 0.0 0.00 0.00 0.00 60 960.7
20260831055443 74 137 4.0 0.0 0.00 0.00 0.00 60 960.7
20260831054942 74 328 5.0 0.0 0.00 0.00 0.00 59 960.7
20260831054441 74 318 6.0 0.0 0.00 0.00 0.00 58 960.7
20260831053943 75 282 6.0 0.0 0.00 0.00 0.00 58 960.7
20260831053442 75 290 5.0 0.0 0.00 0.00 0.00 57 960.7
20260831052942 75 222 6.0 0.0 0.00 0.00 0.00 57 960.7
20260831052441 75 129 7.0 0.0 0.00 0.00 0.00 56 960.7
20260831051941 75 152 5.0 0.0 0.00 0.00 0.00 56 960.7
20260831051441 75 248 4.0 0.0 0.00 0.00 0.00 56 960.7
20260831050941 75 205 4.0 0.0 0.00 0.00 0.00 55 960.7
20260831050440 76 213 8.0 0.0 0.00 0.00 0.00 57 960.7
20260831045942 76 178 8.0 0.0 0.00 0.00 0.00 58 960.7
20260831045637 76 126 3.0 0.0 0.00 0.00 0.00 57 960.4
20260831045240 76 291 4.0 0.0 0.00 0.00 0.00 56 960.7
20260831044442 76 170 3.0 0.0 0.00 0.00 0.00 56 960.4
20260831043938 76 189 3.0 0.0 0.00 0.00 0.00 55 960.4
20260831043438 76 259 3.0 0.0 0.00 0.00 0.00 56 960.4
20260831042938 76 302 6.0 0.0 0.00 0.00 0.00 56 960.4
20260831042438 77 7 8.0 0.0 0.00 0.00 0.00 56 960.4
20260831041936 77 292 8.0 0.0 0.00 0.00 0.00 56 960.4
20260831041439 77 326 7.0 0.0 0.00 0.00 0.00 55 960.4
20260831040937 77 345 8.0 0.0 0.00 0.00 0.00 54 960.4
20260831040435 78 315 7.0 0.0 0.00 0.00 0.00 53 960.4
20260831035935 78 81 8.0 0.0 0.00 0.00 0.00 53 960.4
20260831035438 78 62 8.0 0.0 0.00 0.00 0.00 52 960.4
20260831034937 78 333 6.0 0.0 0.00 0.00 0.00 52 960.0
20260831034436 78 65 9.0 0.0 0.00 0.00 0.00 52 960.0
20260831034333 78 199 7.0 0.0 0.00 0.00 0.00 53 960.0
20260831024431 82 137 5.0 0.0 0.00 0.00 0.00 43 959.4
20260831023930 82 153 5.0 0.0 0.00 0.00 0.00 43 959.4
20260831023431 82 137 6.0 0.0 0.00 0.00 0.00 42 959.4
20260831022929 83 126 7.0 0.0 0.00 0.00 0.00 42 959.4
20260831022431 83 109 7.0 0.0 0.00 0.00 0.00 41 959.0
20260831021930 84 161 10.0 0.0 0.00 0.00 0.00 40 959.0
20260831021428 84 117 10.0 0.0 0.00 0.00 0.00 40 958.7
20260831020930 84 46 9.0 0.0 0.00 0.00 0.00 39 958.7
20260831020431 84 67 7.0 0.0 0.00 0.00 0.00 39 958.7
20260831015928 85 330 8.0 0.0 0.00 0.00 0.00 39 958.7
20260831015429 85 72 9.0 0.0 0.00 0.00 0.00 38 958.3
20260831014928 85 106 9.0 0.0 0.00 0.00 0.00 38 958.3
20260831014427 86 109 10.0 0.0 0.00 0.00 0.00 37 958.7
20260831013928 86 24 9.0 0.0 0.00 0.00 0.00 37 958.7
20260831013427 87 69 8.0 0.0 0.00 0.00 0.00 36 958.7
20260831012927 87 71 10.0 0.0 0.00 0.00 0.00 36 958.7
20260831012426 87 54 12.0 0.0 0.00 0.00 0.00 36 958.7
20260831011925 87 162 11.0 0.0 0.00 0.00 0.00 36 958.7
20260831011426 88 264 12.0 0.0 0.00 0.00 0.00 36 958.7
20260831010926 88 129 13.0 0.0 0.00 0.00 0.00 35 958.7
20260831010426 88 107 12.0 0.0 0.00 0.00 0.00 35 958.7
20260831005924 88 53 15.0 0.0 0.00 0.00 0.00 34 958.7
20260831005426 88 120 15.0 0.0 0.00 0.00 0.00 34 958.7
20260831004924 89 150 14.0 0.0 0.00 0.00 0.00 34 958.7
20260831004425 90 133 13.0 0.0 0.00 0.00 0.00 33 958.7
20260831003925 91 182 9.0 0.0 0.00 0.00 0.00 33 958.7
20260831003424 91 153 9.0 0.0 0.00 0.00 0.00 33 958.7
20260831002924 92 146 11.0 0.0 0.00 0.00 0.00 32 958.7
20260831002423 92 194 11.0 0.0 0.00 0.00 0.00 32 958.7
20260831001923 92 242 14.0 0.0 0.00 0.00 0.00 32 958.7
20260831001423 93 123 14.0 0.0 0.00 0.00 0.00 31 958.7
20260831000924 93 117 11.0 0.0 0.00 0.00 0.00 31 958.3
20260831000425 93 121 13.0 0.0 0.00 0.00 0.00 31 958.7
20260830235923 93 215 14.0 0.0 0.00 0.00 0.00 30 958.3
20260830235423 93 235 13.0 0.0 0.00 0.00 0.00 30 958.3
20260830234923 94 152 16.0 0.0 0.00 0.00 0.00 30 958.3
20260830234422 94 187 19.0 0.0 0.00 0.00 0.00 29 958.3
20260830233919 94 98 15.0 0.0 0.00 0.00 0.00 28 958.3
20260830233420 95 162 15.0 0.0 0.00 0.00 0.00 28 958.3
20260830232920 95 224 13.0 0.0 0.00 0.00 0.00 28 958.3
20260830232418 96 271 15.0 0.0 0.00 0.00 0.00 28 958.3
20260830231919 96 129 14.0 0.0 0.00 0.00 0.00 28 958.3
20260830231420 96 167 16.0 0.0 0.00 0.00 0.00 27 958.3
20260830230918 96 173 14.0 0.0 0.00 0.00 0.00 26 958.3
20260830230419 97 189 11.0 0.0 0.00 0.00 0.00 26 958.3
20260830225918 97 87 15.0 0.0 0.00 0.00 0.00 26 958.3
20260830225418 97 122 15.0 0.0 0.00 0.00 0.00 26 958.3
20260830224838 98 131 14.0 0.0 0.00 0.00 0.00 26 958.3
20260830224817 99 132 0.0 0.0 0.00 0.00 0.00 26 958.3
20260830221915 99 135 11.0 0.0 0.00 0.00 0.00 26 958.7
20260830221414 99 146 14.0 0.0 0.00 0.00 0.00 25 958.7
20260830220916 99 163 16.0 0.0 0.00 0.00 0.00 26 958.7
20260830220414 99 114 11.0 0.0 0.00 0.00 0.00 26 958.7
20260830215913 99 132 11.0 0.0 0.00 0.00 0.00 26 958.7
20260830215412 99 113 13.0 0.0 0.00 0.00 0.00 26 959.0
20260830214914 99 163 13.0 0.0 0.00 0.00 0.00 26 959.0
20260830214414 99 131 13.0 0.0 0.00 0.00 0.00 26 959.0
20260830213913 99 218 11.0 0.0 0.00 0.00 0.00 26 959.0
20260830213411 99 118 13.0 0.0 0.00 0.00 0.00 26 959.0
20260830212912 99 231 11.0 0.0 0.00 0.00 0.00 26 959.4
20260830212412 100 132 10.0 0.0 0.00 0.00 0.00 25 959.4
20260830211911 99 151 12.0 0.0 0.00 0.00 0.00 26 959.4
20260830211410 99 126 13.0 0.0 0.00 0.00 0.00 26 959.4
20260830210914 100 135 11.0 0.0 0.00 0.00 0.00 26 959.4
20260830210341 99 135 9.0 0.0 0.00 0.00 0.00 25 959.4
20260830210313 99 116 0.0 0.0 0.00 0.00 0.00 26 959.4
20260830204915 98 107 14.0 0.0 0.00 0.00 0.00 26 959.7
20260830204410 98 125 13.0 0.0 0.00 0.00 0.00 25 959.7
20260830203913 99 155 11.0 0.0 0.00 0.00 0.00 26 959.7
20260830203409 99 113 14.0 0.0 0.00 0.00 0.00 26 959.7
20260830202912 98 146 12.0 0.0 0.00 0.00 0.00 26 959.7
20260830202341 98 144 16.0 0.0 0.00 0.00 0.00 26 959.7
20260830201914 98 213 12.0 0.0 0.00 0.00 0.00 27 960.0
20260830201410 98 97 13.0 0.0 0.00 0.00 0.00 27 960.0
20260830200915 98 43 9.0 0.0 0.00 0.00 0.00 26 960.0
20260830200412 98 208 11.0 0.0 0.00 0.00 0.00 27 960.0
20260830195912 97 116 13.0 0.0 0.00 0.00 0.00 27 960.0
20260830195410 98 132 13.0 0.0 0.00 0.00 0.00 27 960.0
20260830194914 98 128 13.0 0.0 0.00 0.00 0.00 27 960.0
20260830194413 98 149 13.0 0.0 0.00 0.00 0.00 27 960.0
20260830193914 97 123 10.0 0.0 0.00 0.00 0.00 26 960.0
20260830193514 98 159 7.0 0.0 0.00 0.00 0.00 26 960.0
20260830193213 98 117 10.0 0.0 0.00 0.00 0.00 26 960.0
20260830192413 97 84 10.0 0.0 0.00 0.00 0.00 25 960.4
20260830191913 98 189 12.0 0.0 0.00 0.00 0.00 25 960.4
20260830191413 99 111 12.0 0.0 0.00 0.00 0.00 24 960.4
20260830190912 98 200 8.0 0.0 0.00 0.00 0.00 25 960.4
20260830190412 97 129 10.0 0.0 0.00 0.00 0.00 25 960.4
20260830185911 97 110 10.0 0.0 0.00 0.00 0.00 25 960.4
20260830185412 97 123 9.0 0.0 0.00 0.00 0.00 25 960.4
20260830184912 96 104 8.0 0.0 0.00 0.00 0.00 26 960.7
20260830184414 96 140 8.0 0.0 0.00 0.00 0.00 25 960.7
20260830183912 96 129 11.0 0.0 0.00 0.00 0.00 25 960.7
20260830183411 96 127 11.0 0.0 0.00 0.00 0.00 26 960.7
20260830182913 95 96 9.0 0.0 0.00 0.00 0.00 27 960.7
20260830182413 97 118 7.0 0.0 0.00 0.00 0.00 26 960.7
20260830181911 96 136 7.0 0.0 0.00 0.00 0.00 26 960.7
20260830181412 96 129 9.0 0.0 0.00 0.00 0.00 27 960.7
20260830180912 97 114 9.0 0.0 0.00 0.00 0.00 26 960.7
20260830180411 96 166 7.0 0.0 0.00 0.00 0.00 27 960.7
20260830175911 97 101 5.0 0.0 0.00 0.00 0.00 27 960.7
20260830175411 96 178 6.0 0.0 0.00 0.00 0.00 30 961.1
20260830174914 96 40 6.0 0.0 0.00 0.00 0.00 28 960.7
20260830174414 95 151 8.0 0.0 0.00 0.00 0.00 28 960.7
20260830173910 95 121 8.0 0.0 0.00 0.00 0.00 29 960.7
20260830173411 95 123 6.0 0.0 0.00 0.00 0.00 29 960.7
20260830172911 95 55 6.0 0.0 0.00 0.00 0.00 28 960.7
20260830172412 94 274 6.0 0.0 0.00 0.00 0.00 29 960.7
20260830171943 93 354 9.0 0.0 0.00 0.00 0.00 29 960.7
20260830171442 93 130 6.0 0.0 0.00 0.00 0.00 31 960.7
20260830170840 93 6 5.0 0.0 0.00 0.00 0.00 33 961.1
20260830165340 92 315 4.0 0.0 0.00 0.00 0.00 34 961.1
20260830164939 92 304 4.0 0.0 0.00 0.00 0.00 35 961.1
20260830164441 91 55 6.0 0.0 0.00 0.00 0.00 36 961.1
20260830163940 91 38 4.0 0.0 0.00 0.00 0.00 36 961.1
20260830163438 90 104 4.0 0.0 0.00 0.00 0.00 37 961.1
20260830162937 90 353 3.0 0.0 0.00 0.00 0.00 37 961.1
20260830162438 90 94 3.0 0.0 0.00 0.00 0.00 37 961.1
20260830161937 89 32 3.0 0.0 0.00 0.00 0.00 38 961.1
20260830161438 88 343 3.0 0.0 0.00 0.00 0.00 39 961.1
20260830160937 87 349 4.0 0.0 0.00 0.00 0.00 40 961.1
20260830160438 86 23 5.0 0.0 0.00 0.00 0.00 40 961.1
20260830155936 87 6 4.0 0.0 0.00 0.00 0.00 40 961.1
20260830155435 86 314 3.0 0.0 0.00 0.00 0.00 41 961.1
20260830154937 86 359 3.0 0.0 0.00 0.00 0.00 41 961.1
20260830154436 85 336 4.0 0.0 0.00 0.00 0.00 42 961.4
20260830153935 84 327 4.0 0.0 0.00 0.00 0.00 42 961.4
20260830153434 84 327 3.0 0.0 0.00 0.00 0.00 43 961.4
20260830152935 83 2 2.0 0.0 0.00 0.00 0.00 45 961.4
20260830152435 82 51 2.0 0.0 0.00 0.00 0.00 46 961.4
20260830151933 81 46 3.0 0.0 0.00 0.00 0.00 47 961.4
20260830151434 80 7 4.0 0.0 0.00 0.00 0.00 49 961.4
20260830150932 79 317 4.0 0.0 0.00 0.00 0.00 51 961.4
20260830150433 78 349 4.0 0.0 0.00 0.00 0.00 51 961.4
20260830145932 78 28 4.0 0.0 0.00 0.00 0.00 52 961.4
20260830145431 78 39 4.0 0.0 0.00 0.00 0.00 52 961.4
20260830145033 78 83 3.0 0.0 0.00 0.00 0.00 52 961.4
20260830144432 78 333 2.0 0.0 0.00 0.00 0.00 53 961.4
20260830143932 77 358 3.0 0.0 0.00 0.00 0.00 53 961.4
20260830143431 77 352 3.0 0.0 0.00 0.00 0.00 53 961.4
20260830142930 77 16 2.0 0.0 0.00 0.00 0.00 53 961.4
20260830142429 77 69 2.0 0.0 0.00 0.00 0.00 53 961.4
20260830141931 76 126 1.0 0.0 0.00 0.00 0.00 54 961.4
20260830141429 75 127 3.0 0.0 0.00 0.00 0.00 56 961.4
20260830140828 74 101 2.0 0.0 0.00 0.00 0.00 58 961.4
20260830140529 72 128 0.0 0.0 0.00 0.00 0.00 60 961.4
20260830135428 70 133 2.0 0.0 0.00 0.00 0.00 63 961.4
20260830135026 70 113 1.0 0.0 0.00 0.00 0.00 64 961.1
20260830133925 70 206 1.0 0.0 0.00 0.00 0.00 64 961.1
20260830133424 70 207 3.0 0.0 0.00 0.00 0.00 63 961.1
20260830132925 70 205 3.0 0.0 0.00 0.00 0.00 64 961.1
20260830132337 69 162 3.0 0.0 0.00 0.00 0.00 65 961.1
20260830131923 69 175 3.0 0.0 0.00 0.00 0.00 66 960.7
20260830131423 68 199 3.0 0.0 0.00 0.00 0.00 67 960.7
20260830130841 67 215 2.0 0.0 0.00 0.00 0.00 68 960.7
20260830130424 67 223 1.0 0.0 0.00 0.00 0.00 68 960.7
20260830125923 67 287 0.0 0.0 0.00 0.00 0.00 67 960.7
20260830125623 68 288 0.0 0.0 0.00 0.00 0.00 67 960.7
20260830124839 68 287 0.0 0.0 0.00 0.00 0.00 66 960.4
20260830124342 68 286 0.0 0.0 0.00 0.00 0.00 65 960.4
20260830123923 68 287 0.0 0.0 0.00 0.00 0.00 65 960.4
20260830123524 68 337 0.0 0.0 0.00 0.00 0.00 64 960.4
20260830123223 69 290 0.0 0.0 0.00 0.00 0.00 63 960.4
20260830122341 69 290 1.0 0.0 0.00 0.00 0.00 63 960.4
20260830121841 69 290 2.0 0.0 0.00 0.00 0.00 63 960.4
20260830121340 70 197 2.0 0.0 0.00 0.00 0.00 62 960.4
20260830120920 70 196 2.0 0.0 0.00 0.00 0.00 63 960.4
20260830120419 70 163 2.0 0.0 0.00 0.00 0.00 63 960.4
20260830120020 70 339 0.0 0.0 0.00 0.00 0.00 62 960.4